This is the latest recevied weather packets stored in our database for station/object KK7KRZ. If no packets are shown the sender has not sent any weather packets the latest 10 day(s).
| Time | Temp. | Humidity | Pressure | Rain* | Wind** | Luminosity | Snow |
|---|---|---|---|---|---|---|---|
| 1777953426 | 14.44° C | 83% | 1011.8 hPa | 0 mm | - | 0 W/m² | - |
| 1777953122 | 14.44° C | 82% | 1012.1 hPa | 0 mm | - | 0 W/m² | - |
| 1777952818 | 14.44° C | 82% | 1011.8 hPa | 0 mm | - | 0 W/m² | - |
| 1777952516 | 15° C | 82% | 1011.9 hPa | 0 mm | - | 0 W/m² | - |
| 1777952212 | 15° C | 81% | 1011.5 hPa | 0 mm | - | 0 W/m² | - |
| 1777951911 | 15° C | 81% | 1011.5 hPa | 0 mm | - | 0 W/m² | - |
| 1777951608 | 15.56° C | 80% | 1011.3 hPa | 0 mm | - | 0 W/m² | - |
| 1777951304 | 15.56° C | 80% | 1011.4 hPa | 0 mm | - | 0 W/m² | - |
| 1777951002 | 15.56° C | 79% | 1011.2 hPa | 0 mm | - | 0 W/m² | - |
| 1777950698 | 16.11° C | 79% | 1011.5 hPa | 0 mm | - | 1 W/m² | - |
| 1777950395 | 16.11° C | 79% | 1011.4 hPa | 0 mm | - | 3 W/m² | - |
| 1777950090 | 16.11° C | 78% | 1011 hPa | 0 mm | - | 4 W/m² | - |
| 1777949787 | 16.67° C | 78% | 1011.1 hPa | 0 mm | - | 6 W/m² | - |
| 1777949486 | 16.67° C | 77% | 1011.1 hPa | 0 mm | - | 9 W/m² | - |
| 1777949183 | 16.67° C | 76% | 1010.8 hPa | 0 mm | - | 10 W/m² | - |
| 1777948880 | 17.22° C | 75% | 1010.9 hPa | 0 mm | - | 11 W/m² | - |
| 1777948577 | 17.22° C | 75% | 1010.9 hPa | 0 mm | - | 12 W/m² | - |
| 1777948274 | 17.78° C | 74% | 1010.6 hPa | 0 mm | - | 13 W/m² | - |
| 1777947972 | 17.78° C | 73% | 1010.8 hPa | 0 mm | - | 15 W/m² | - |
| 1777947668 | 18.33° C | 73% | 1010.7 hPa | 0 mm | - | 16 W/m² | - |
| 1777947365 | 18.33° C | 71% | 1010.7 hPa | 0 mm | - | 17 W/m² | - |
| 1777947062 | 18.89° C | 72% | 1010.3 hPa | 0 mm | - | 18 W/m² | - |
| 1777946762 | 19.44° C | 71% | 1010.5 hPa | 0 mm | - | 19 W/m² | - |
| 1777946459 | 19.44° C | 71% | 1010.6 hPa | 0 mm | - | 19 W/m² | - |
| 1777946156 | 19.44° C | 71% | 1010.5 hPa | 0 mm | - | 20 W/m² | - |
* Rain latest hour (hover to see other rain measurements)
** Current wind speed in m/s (hover to see current wind gust speed)